WESTFORD NEEDLES, 18615

Orbit data source: Space-Track

WESTFORD NEEDLES, 18615 is space debris in LEO originally from a launch on Thu, 09 May 1963 UTC launched from the Air Force Western Test Range (AFWTR). Debris objects in space refer to the collection of defunct objects orbiting the Earth. Examples of debris include non-operational satellites, rocket bodies, and fragments generated from explosions, collisions, or faulty payload assembly.

Loading next visibility...
Identifier
18615, 1963-014DK
Orbit
LEO
Country
Flag of USUS
Related business
Manufacturer
Unknown
Mission
Spacecraft
Bus & Motor
Unknown
Mass
Unknown
Launch date (UTC)
1963-05-09 (63 years ago)
Launch vehicle
Unknown
Launch site
Air Force Western Test Range (AFWTR)
Object type
Payload
Rocket body
Debris
Shape & HBR
Unknown shape, 0.2 m
Radar Cross Section
Medium (>0.1 m² and <1 m²)

Expand to show TLE details & history
Last TLE update: 3 days ago

TLE from 3 days ago
0 WESTFORD NEEDLES
1 18615U 63014DK  26234.84956277  .00000615  00000-0  39556-1 0  9991
2 18615  86.2566  94.5616 1898950  38.9121 343.4913  8.77025156 48977
Epoch: 2026-08-22T20:23Z
TLE epoch observation values (Epoch: 2026-08-22T20:23:22.223Z)
Latitude
14.4008°
Longitude
178.52286°
Altitude
1,786.436 km
Speed
7.586 km/s
True Right ascension
06h 22m 04s
True Declination
14° 19' 43"
Sunlit
Object was in daylight at epoch
Visualization orbit readout
Latitude
Unknown
Longitude
Unknown
Altitude
Unknown
Speed
Unknown
Apparent Right ascension
Unknown
Apparent Declination
Unknown
Sunlit
N/A
Visualization observer readout
Local Sidereal Time
23:38:57
Azimuth
Unknown
Elevation
Unknown
Doppler factor
Unknown
Orbital elements
Apogee altitude
5,437.803 km
Perigee altitude
1,666.398 km
Semi-major axis
9,930.237 km
Eccentricity
0.1899
Inclination
86.2566°
RAAN
94.5616°
Arg. of periapsis
38.9121°
True anomaly
335.54043°
Mean anomaly
343.4913°
Eccentric anomaly
339.72017°
Mean motion
2.19333 °/min
Orbital period
164.13 mins
BSTAR
0.039556
Loading maneuver chart data...
Computing Atmospheric mass density...
Loading historical data...
Loading historical data...
Loading historical data...
Loading historical data...
Loading historical data...
Loading historical data...
Loading historical data...

Documentation

Showing up to 5 results
|